FENGYUN 1C DEB, 30830

Orbit data source: Space-Track

FENGYUN 1C DEB, 30830 is space debris in SSO originally from a launch on Mon, 10 May 1999 UTC launched from the Taiyaun Space Center, China (TSC). Fengyun 1C debris stems from the Chinese weather satellite Fengyun-1C, which was intentionally destroyed by a Chinese anti-satellite missile in 2007. This event dramatically increased the amount of space debris, with thousands of trackable fragments posing hazards to satellites and human spaceflight. The Fengyun 1C debris cloud has become a focal point in discussions about space sustainability and the need for international regulations to prevent the creation of new debris.

Loading next visibility...
Identifier
30830, 1999-025AVQ
Orbit
SSO
Country
Flag of CNCN / PRC
Related business
Manufacturer
Unknown
Mission
Spacecraft
Bus & Motor
Unknown
Mass
Unknown
Launch date (UTC)
1999-05-10 (27 years ago)
Launch vehicle
Unknown
Launch site
Taiyaun Space Center, China (TSC)
Object type
Payload
Rocket body
Debris
Shape & HBR
Unknown shape, 0.1 m
Radar Cross Section
Medium (>0.1 m² and <1 m²)

Expand to show TLE details & history
Last TLE update: 13 hours ago

TLE from 13 hours ago
0 FENGYUN 1C DEB
1 30830U 99025AVQ 26208.43684243  .00000361  00000-0  21830-3 0  9998
2 30830  98.7457 196.2306 0029532 266.2829 247.3636 14.12447533997997
Epoch: 2026-07-27T10:29Z
TLE epoch observation values (Epoch: 2026-07-27T10:29:03.185Z)
Latitude
26.36701°
Longitude
-81.80284°
Altitude
862.475 km
Speed
7.419 km/s
True Right ascension
01h 22m 19s
True Declination
26° 13' 57"
Sunlit
Object was in daylight at epoch
Visualization orbit readout
Latitude
Unknown
Longitude
Unknown
Altitude
Unknown
Speed
Unknown
Apparent Right ascension
Unknown
Apparent Declination
Unknown
Sunlit
N/A
Visualization observer readout
Local Sidereal Time
12:35:15
Azimuth
Unknown
Elevation
Unknown
Doppler factor
Unknown
Orbital elements
Apogee altitude
869.52 km
Perigee altitude
826.838 km
Semi-major axis
7,226.316 km
Eccentricity
0.00295
Inclination
98.7457°
RAAN
196.2306°
Arg. of periapsis
266.2829°
True anomaly
247.0517°
Mean anomaly
247.3636°
Eccentric anomaly
247.20761°
Mean motion
3.5332 °/min
Orbital period
101.89 mins
BSTAR
0.0002183
Loading maneuver chart data...
Computing Atmospheric mass density...
Loading historical data...
Loading historical data...
Loading historical data...
Loading historical data...
Loading historical data...
Loading historical data...
Loading historical data...

Documentation

Showing up to 5 results
|